TimeCST,TemperatureF,Dew PointF,Humidity,Sea Level PressureIn,VisibilityMPH,Wind Direction,Wind SpeedMPH,Gust SpeedMPH,PrecipitationIn,Events,Conditions,WindDirDegrees,DateUTC
12:15 AM,6.8,3.2,85,29.86,10.0,East,15.0,18.4,N/A,,Overcast,90,2012-12-08 06:15:00
12:35 AM,6.8,3.2,85,29.85,10.0,East,13.8,-,N/A,,Overcast,90,2012-12-08 06:35:00
12:55 AM,6.8,3.2,85,29.85,10.0,East,11.5,18.4,N/A,Snow,Light Snow,90,2012-12-08 06:55:00
1:15 AM,6.8,3.2,85,29.84,9.0,East,13.8,19.6,N/A,Snow,Light Snow,90,2012-12-08 07:15:00
1:35 AM,6.8,3.2,85,29.83,10.0,East,16.1,-,N/A,Snow,Light Snow,90,2012-12-08 07:35:00
1:55 AM,6.8,5.0,92,29.83,10.0,East,12.7,-,N/A,,Overcast,90,2012-12-08 07:55:00
2:15 AM,8.6,5.0,85,29.83,10.0,East,13.8,-,N/A,,Overcast,90,2012-12-08 08:15:00
2:35 AM,8.6,5.0,85,29.82,10.0,East,12.7,-,N/A,,Overcast,90,2012-12-08 08:35:00
2:55 AM,8.6,5.0,85,29.82,10.0,East,17.3,-,N/A,,Overcast,90,2012-12-08 08:55:00
3:15 AM,8.6,5.0,85,29.83,10.0,East,13.8,-,N/A,,Overcast,90,2012-12-08 09:15:00
3:35 AM,8.6,5.0,85,29.82,10.0,East,13.8,-,N/A,,Overcast,90,2012-12-08 09:35:00
3:55 AM,8.6,5.0,85,29.82,10.0,East,13.8,-,N/A,,Overcast,80,2012-12-08 09:55:00
4:15 AM,8.6,5.0,85,29.82,10.0,East,13.8,17.3,N/A,,Overcast,90,2012-12-08 10:15:00
4:35 AM,8.6,5.0,85,29.81,10.0,East,17.3,-,N/A,,Overcast,90,2012-12-08 10:35:00
5:15 AM,8.6,5.0,85,29.82,10.0,East,13.8,19.6,N/A,Snow,Light Snow,80,2012-12-08 11:15:00
5:35 AM,8.6,5.0,85,29.82,10.0,ENE,16.1,20.7,N/A,,Overcast,70,2012-12-08 11:35:00
5:55 AM,8.6,5.0,85,29.82,10.0,East,17.3,20.7,N/A,Snow,Light Snow,80,2012-12-08 11:55:00
6:15 AM,6.8,5.0,92,29.83,9.0,East,13.8,-,N/A,Snow,Light Snow,80,2012-12-08 12:15:00
6:35 AM,6.8,5.0,92,29.82,10.0,East,16.1,24.2,N/A,Rain,Freezing Rain,80,2012-12-08 12:35:00
6:55 AM,6.8,5.0,92,29.83,9.0,East,18.4,23.0,N/A,Snow,Light Snow,80,2012-12-08 12:55:00
7:15 AM,8.6,5.0,85,29.83,7.0,East,17.3,20.7,N/A,Rain,Freezing Rain,80,2012-12-08 13:15:00
7:35 AM,8.6,5.0,85,29.83,10.0,East,18.4,-,N/A,Snow,Light Snow,80,2012-12-08 13:35:00
7:55 AM,8.6,5.0,85,29.84,10.0,East,16.1,-,N/A,Snow,Light Snow,80,2012-12-08 13:55:00
8:15 AM,8.6,5.0,85,29.85,10.0,ENE,12.7,-,N/A,,Overcast,70,2012-12-08 14:15:00
8:35 AM,8.6,5.0,85,29.86,10.0,ENE,13.8,-,N/A,Snow,Light Snow,70,2012-12-08 14:35:00
8:55 AM,6.8,3.2,85,29.86,10.0,ENE,17.3,-,N/A,,Overcast,70,2012-12-08 14:55:00
9:15 AM,6.8,3.2,85,29.86,10.0,ENE,15.0,-,N/A,,Overcast,60,2012-12-08 15:15:00
9:35 AM,6.8,1.4,79,29.87,10.0,ENE,15.0,-,N/A,,Overcast,60,2012-12-08 15:35:00
9:55 AM,6.8,1.4,79,29.87,10.0,ENE,16.1,-,N/A,,Overcast,60,2012-12-08 15:55:00
10:15 AM,5.0,1.4,85,29.89,10.0,ENE,13.8,-,N/A,,Overcast,60,2012-12-08 16:15:00
10:35 AM,5.0,-0.4,78,29.90,10.0,ENE,16.1,-,N/A,,Overcast,60,2012-12-08 16:35:00
10:55 AM,5.0,-0.4,78,29.91,10.0,ENE,13.8,-,N/A,,Scattered Clouds,70,2012-12-08 16:55:00
11:15 AM,5.0,-0.4,78,29.92,-9999.0,ENE,15.0,-,N/A,,Clear,60,2012-12-08 17:15:00
11:35 AM,5.0,-0.4,78,29.93,10.0,NE,13.8,-,N/A,,Mostly Cloudy,50,2012-12-08 17:35:00
11:55 AM,5.0,-0.4,78,29.93,10.0,NE,15.0,-,N/A,,Mostly Cloudy,50,2012-12-08 17:55:00
12:15 PM,5.0,-0.4,78,29.94,10.0,NE,16.1,-,N/A,,Clear,50,2012-12-08 18:15:00
12:35 PM,5.0,-0.4,78,29.94,10.0,NE,13.8,-,N/A,,Clear,50,2012-12-08 18:35:00
12:55 PM,5.0,-0.4,78,29.94,10.0,NE,16.1,-,N/A,,Clear,40,2012-12-08 18:55:00
1:15 PM,5.0,-0.4,78,29.94,10.0,NE,16.1,19.6,N/A,,Scattered Clouds,40,2012-12-08 19:15:00
1:35 PM,5.0,-0.4,78,29.95,10.0,NNE,13.8,-,N/A,,Partly Cloudy,30,2012-12-08 19:35:00
1:55 PM,5.0,-0.4,78,29.96,10.0,NNE,15.0,-,N/A,,Clear,30,2012-12-08 19:55:00
2:35 PM,5.0,-0.4,78,29.98,10.0,NNE,17.3,-,N/A,,Clear,30,2012-12-08 20:35:00
2:55 PM,5.0,-0.4,78,29.99,10.0,NNE,12.7,-,N/A,,Clear,30,2012-12-08 20:55:00
3:15 PM,5.0,-0.4,78,30.00,10.0,NNE,15.0,-,N/A,,Clear,30,2012-12-08 21:15:00
3:35 PM,5.0,-0.4,78,30.02,10.0,NNE,15.0,-,N/A,,Clear,20,2012-12-08 21:35:00
3:55 PM,5.0,-0.4,78,30.03,10.0,NNE,13.8,-,N/A,,Clear,20,2012-12-08 21:55:00
4:15 PM,5.0,-0.4,78,30.05,10.0,NNE,11.5,-,N/A,,Clear,30,2012-12-08 22:15:00
4:35 PM,3.2,-2.2,78,30.07,10.0,NNE,11.5,-,N/A,,Clear,20,2012-12-08 22:35:00
4:55 PM,1.4,-2.2,85,30.09,10.0,North,9.2,-,N/A,,Clear,10,2012-12-08 22:55:00
5:15 PM,1.4,-2.2,85,30.10,10.0,NNE,6.9,-,N/A,,Clear,20,2012-12-08 23:15:00
5:35 PM,-0.4,-2.2,92,30.11,10.0,North,5.8,-,N/A,,Clear,360,2012-12-08 23:35:00
5:55 PM,1.4,-2.2,85,30.11,10.0,North,9.2,-,N/A,,Clear,360,2012-12-08 23:55:00
6:15 PM,1.4,-2.2,85,30.13,10.0,North,10.4,-,N/A,,Clear,360,2012-12-09 00:15:00
6:35 PM,1.4,-2.2,85,30.14,10.0,North,9.2,-,N/A,,Clear,360,2012-12-09 00:35:00
6:55 PM,1.4,-2.2,85,30.15,10.0,North,13.8,-,N/A,,Clear,350,2012-12-09 00:55:00
7:15 PM,1.4,-2.2,85,30.16,10.0,North,11.5,-,N/A,,Clear,350,2012-12-09 01:15:00
7:55 PM,-0.4,-4.0,85,30.18,10.0,NNW,12.7,-,N/A,,Clear,340,2012-12-09 01:55:00
8:15 PM,-0.4,-4.0,85,30.19,10.0,North,11.5,-,N/A,,Clear,350,2012-12-09 02:15:00
8:35 PM,-0.4,-5.8,78,30.20,10.0,North,10.4,-,N/A,,Clear,350,2012-12-09 02:35:00
8:55 PM,-2.2,-5.8,85,30.21,10.0,NNW,9.2,-,N/A,,Clear,340,2012-12-09 02:55:00
9:15 PM,-2.2,-7.6,78,30.22,10.0,NNW,9.2,-,N/A,,Clear,340,2012-12-09 03:15:00
9:35 PM,-2.2,-7.6,78,30.23,10.0,NNW,8.1,-,N/A,,Clear,330,2012-12-09 03:35:00
9:55 PM,-2.2,-7.6,78,30.23,10.0,NW,8.1,-,N/A,,Clear,320,2012-12-09 03:55:00
10:35 PM,-4.0,-9.4,78,30.25,10.0,NW,10.4,-,N/A,,Clear,320,2012-12-09 04:35:00
10:55 PM,-4.0,-9.4,78,30.26,10.0,NW,10.4,-,N/A,,Clear,320,2012-12-09 04:55:00
11:15 PM,-4.0,-9.4,78,30.27,10.0,NW,9.2,-,N/A,,Clear,320,2012-12-09 05:15:00
11:35 PM,-2.2,-7.6,78,30.28,10.0,NW,10.4,-,N/A,,Clear,310,2012-12-09 05:35:00
11:55 PM,-2.2,-7.6,78,30.29,10.0,NW,11.5,-,N/A,,Clear,310,2012-12-09 05:55:00